Starlink 1273

operational
NORAD ID: 45367 Int'l Des: 2020-019 Owner: SPXS Country: US Constellation: starlink
LEOCIRCULARSTARLINK_TYPE

关于 Starlink 1273

正在加载描述...

实时位置

正在加载3D地球...

即将过境

高度历史

Altitude vs Time

uPlot chart will show altitude changes over time

两行轨道根数

1 45367U 20019H 25351.24497580 .00002388 00000-0 17918-3 0 9992
2 45367 53.0542 176.7245 0001282 90.7477 269.3659 15.06390860317307
Epoch: Dec 17, 2025 • Age: 7 hours

当前状态

高度 555.5 km
速度 7.58 km/s
星下点 -26.38°S, 92.82°E
发射日期 Mar 18, 2020
运行时间 5.7 years
类型 internet

技术详情

分类 Payload
质量 260.00 kg
干质量 248.00 kg
总质量 260.00 kg
长度 0.20 m
直径 2.80 m
跨度 9.00 m
形状 Box + pan
制造商 SPXS
平台类型 Starlink
阶段状态 In Orbit
所有者/国家 SPXS/US

大型星座

Loading constellations...